RH
80 78 77 82 78 81 76 74 82 78 79 75 81 75 62 61 66 76 74 76 74 77 86 94 96 96 96 96 97 97 96 95 94
80 78 79 78 77 76 77 76 74 74 77 80 77 79 64 62 72 75 74 73 76 78 92 96 95 94 94 96 96 94 94 95 95
85 86 79 75 76 77 76 72 73 75 77 78 78 74 62 72 73 74 76 72 77 79 77 92 95 94 94 92 94 94 96 97 97
78 89 88 81 76 75 75 75 73 76 75 77 77 72 68 69 68 64 63 74 72 77 81 82 96 95 93 90 93 95 96 97 97
99 92 94 95 90 78 80 81 76 79 75 80 80 71 73 66 63 57 59 68 76 90 96 94 92 90 90 94 96 92 92 93 91
92 85 88 89 91 86 84 82 82 79 76 76 80 75 75 66 57 58 58 61 69 83 84 87 92 90 92 92 96 94 90 87 71
100 78 90 90 98 87 90 85 83 83 82 79 78 74 60 70 62 60 56 60 58 70 88 89 92 93 93 95 94 88 86 82 91
93 96 80 84 82 92 98 96 86 86 86 86 82 78 68 73 76 75 74 71 68 73 82 80 94 87 96 94 90 82 85 88 96
75 82 85 85 86 85 86 95 97 100 89 91 88 79 75 78 78 74 67 64 85 69 81 77 81 90 96 92 86 93 95 97 94
70 69 76 79 83 88 84 84 96 98 100 99 98 93 89 82 79 82 70 73 80 77 68 78 82 94 92 88 87 92 87 96 93
69 72 71 72 77 82 93 93 90 97 95 100 99 100 95 93 89 86 87 80 71 68 74 71 89 91 90 83 86 94 86 93 96
61 74 76 77 73 76 79 90 92 92 98 93 94 100 98 93 92 85 84 83 69 64 84 70 76 95 96 89 87 95 89 97 91
45 68 76 76 75 77 76 80 84 88 92 92 90 93 99 95 82 92 91 90 80 79 76 77 71 77 92 98 90 94 95 94 87
33 44 62 72 76 79 83 77 84 94 90 94 90 94 91 90 82 78 75 74 70 77 70 78 74 70 69 93 95 97 94 91 87
47 41 39 53 74 77 81 87 87 86 88 91 94 95 90 87 89 84 82 86 80 71 77 74 77 75 66 83 98 99 94 90 88
49 57 60 58 65 78 80 86 87 87 78 88 89 87 76 88 90 88 85 84 82 75 78 78 76 75 73 73 82 91 95 91 88
44 48 55 63 67 71 82 81 88 87 85 97 90 97 90 89 80 84 89 83 76 72 73 74 76 80 75 75 76 84 94 100 94
41 49 53 56 64 70 75 83 84 99 86 86 99 95 94 91 95 94 96 98 95 93 90 81 77 86 84 79 75 76 84 99 97
47 46 47 56 59 65 72 78 83 85 98 92 87 96 95 97 95 94 96 99 98 98 99 100 93 91 91 89 84 76 81 91 99
49 48 49 55 59 60 64 72 77 84 90 98 99 97 91 94 97 93 88 86 83 81 80 84 94 100 89 92 94 90 86 88 97
Wind_Speed
9 9 9 8 8 8 8 8 9 10 10 9 10 9 8 8 5 2 6 8 11 13 15 15 15 14 14 15 15 15 14 14 14
11 10 10 11 10 10 10 10 12 12 13 11 11 10 9 9 5 3 3 9 14 15 16 15 14 14 12 11 12 12 12 12 13
11 12 11 11 13 12 12 12 12 13 14 13 13 11 11 11 6 8 6 5 12 13 12 13 13 12 12 12 12 12 13 14 14
12 11 12 10 12 14 15 14 12 13 13 14 14 13 14 10 4 6 6 6 7 8 10 10 11 12 12 13 12 14 14 14 14
11 10 11 11 12 14 13 16 15 13 14 15 15 15 15 12 1 10 5 8 8 9 12 12 12 13 13 14 15 16 16 15 14
14 14 14 13 15 14 14 17 17 16 16 16 17 16 14 13 7 9 11 10 9 13 13 14 13 14 15 16 16 17 16 15 14
17 14 15 15 17 14 14 17 19 18 18 20 21 22 20 18 16 13 14 11 8 12 14 16 16 17 18 16 17 16 15 15 17
18 19 17 18 17 15 13 14 19 23 21 23 25 26 25 25 21 9 8 6 9 11 16 18 18 19 19 18 16 14 15 18 21
17 17 19 19 18 17 17 15 17 20 22 24 28 29 28 28 26 23 15 10 9 14 15 20 21 20 19 18 16 14 16 20 22
17 16 16 17 18 19 17 17 16 15 18 28 30 22 25 27 27 23 21 21 14 12 13 16 20 21 20 20 18 17 19 20 20
21 17 16 16 17 18 18 14 11 7 14 14 11 18 22 18 18 21 20 19 19 17 17 16 19 21 23 21 20 20 21 21 20
23 19 16 17 17 17 19 18 16 17 15 13 14 5 18 20 18 14 16 20 19 21 21 20 20 22 25 24 23 23 23 22 20
24 21 18 18 16 16 17 19 21 18 17 15 10 10 9 19 19 16 18 17 20 21 20 23 20 20 24 25 25 27 25 22 20
23 21 21 20 17 13 17 18 20 20 18 15 14 12 13 19 18 22 22 21 23 22 23 21 23 21 21 26 26 27 27 24 22
24 23 23 21 19 16 15 17 18 21 20 18 15 14 16 18 20 19 21 24 23 21 22 23 22 25 23 26 27 30 28 23 22
21 22 24 22 19 18 17 12 15 19 17 19 12 18 20 21 22 21 23 25 21 18 19 21 22 24 25 26 28 23 25 26 26
24 23 24 21 21 20 17 16 14 16 15 8 12 3 6 16 25 27 27 25 25 23 20 22 21 24 26 29 30 33 32 31 30
24 23 24 23 20 19 19 17 14 12 18 17 8 3 3 2 7 17 23 21 21 20 18 20 21 26 25 26 29 31 32 32 33
21 22 23 23 21 21 18 16 16 14 14 16 10 15 17 3 2 3 7 12 15 18 20 18 19 18 23 25 25 30 34 34 35
22 22 22 22 21 21 21 19 16 15 14 16 14 16 17 18 7 5 4 7 12 11 11 12 18 19 20 23 27 27 28 37 36
Wind_Direction
282 280 280 279 275 267 268 266 261 249 238 236 229 234 212 195 197 226 217 179 169 162 139 130 131 124 127 130 130 129 126 124 124
301 290 287 284 282 280 271 270 259 251 243 242 225 227 204 190 176 221 213 199 184 170 147 140 137 135 136 134 136 140 141 138 136
323 315 297 293 288 281 278 273 260 249 237 235 224 218 206 197 200 190 213 171 172 170 163 151 151 151 154 152 148 149 149 144 139
311 329 312 290 279 277 277 272 263 240 231 227 217 222 205 191 187 195 223 203 189 187 182 170 167 168 169 168 161 160 153 145 142
326 297 299 306 288 279 270 269 260 246 225 221 214 212 211 212 215 202 216 207 202 198 192 184 186 189 183 171 164 161 152 146 142
333 314 306 302 303 286 280 266 258 248 232 220 211 208 210 223 241 227 231 231 220 213 216 201 191 194 184 179 170 160 158 160 169
347 356 354 319 305 291 282 266 263 252 235 223 212 206 197 208 231 228 235 232 248 225 224 211 197 192 180 176 172 169 168 167 164
2 354 355 348 345 328 300 277 256 248 234 229 218 212 208 206 212 201 189 234 266 242 240 226 203 194 181 177 181 178 172 168 158
360 354 349 346 341 337 324 305 285 260 245 231 227 218 214 214 219 219 220 251 260 266 257 228 209 195 184 182 183 179 174 170 161
355 355 350 348 338 336 335 332 299 296 267 245 230 224 223 220 229 238 245 253 256 264 258 222 208 198 187 192 190 181 181 171 168
349 354 351 350 340 337 331 323 341 328 344 306 265 210 204 218 224 232 238 257 255 255 253 238 214 205 192 200 197 188 188 180 176
351 350 351 345 336 340 327 328 312 307 312 305 320 270 222 226 221 216 255 255 253 263 254 238 223 211 201 199 198 193 192 185 185
350 347 345 339 342 342 336 324 323 320 311 305 300 269 226 206 213 209 221 246 250 254 253 238 231 223 218 209 203 192 192 190 194
346 342 339 343 343 343 346 318 319 323 314 298 297 278 252 245 251 252 250 246 250 244 245 236 236 236 230 215 212 201 189 195 198
339 336 334 336 338 337 330 333 321 313 314 306 288 268 265 265 260 262 257 250 253 252 245 238 233 231 235 223 213 206 192 193 200
327 327 326 329 328 329 330 326 320 314 309 313 290 274 258 251 248 252 253 251 248 240 244 244 236 234 228 224 220 213 198 204 198
324 320 319 320 322 323 321 325 317 309 308 308 297 284 262 245 245 246 247 248 250 248 245 240 238 235 230 226 225 223 219 199 196
317 314 313 314 314 312 313 309 310 311 300 302 299 290 250 285 235 244 238 241 250 248 246 246 239 228 232 233 231 229 225 203 199
313 306 309 306 305 308 305 305 301 304 295 304 292 297 282 282 328 237 225 230 235 244 242 238 245 238 229 231 233 235 228 215 209
306 312 311 311 306 301 300 297 290 296 290 287 299 299 301 277 240 272 246 240 244 241 246 242 241 248 236 231 235 237 235 228 216